Weather History for KRZL - February, 2014

Change the Weather History Date:

Wednesday, February 5, 2014

  Actual Average (KVPZ) Record (KVPZ)
Temperature  
Mean Temperature 19 °F 25 °F  
Max Temperature 28 °F 33 °F 47 °F (2005)
Min Temperature 8 °F 17 °F -10 °F (2007)
Degree Days  
Heating Degree Days 46 40  
Month to date heating degree days 202  
Since 1 July heating degree days 3887  
Cooling Degree Days 0 0  
Month to date cooling degree days 0  
Year to date cooling degree days 0  
Moisture  
Dew Point 20 °F    
Average Humidity 89    
Maximum Humidity 100    
Minimum Humidity 74    
Precipitation  
Precipitation 0.00 in 0.05 in 0.49 in (2008)
Month to date precipitation 0.22  
Year to date precipitation 1.97  
Sea Level Pressure  
Sea Level Pressure 30.17 in    
Wind  
Wind Speed 14 mph (NNW)    
Max Wind Speed 21 mph    
Max Gust Speed 25 mph    
Visibility 6 miles    
Events Snow    
T = Trace of Precipitation, MM = Missing Value Source: NWS Daily Summary

Daily Weather History Graph

Daily Weather History Graph

Search for Another Location

Airport or City:

Trip Planner

Search our weather history database for the weather conditions in past years. The results will help you decide how hot, cold, wet, or windy it might be!

Date:

Astronomy

Feb. 05, 2014 Rise Set
Actual Time 6:55 AM CST 5:10 PM CST
Civil Twilight 6:26 AM CST 5:39 PM CST
Nautical Twilight 5:53 AM CST 6:12 PM CST
Astronomical Twilight 5:21 AM CST 6:44 PM CST
Moon 10:06 AM CST (2/5) No Moon Set
Length of Visible Light 11h 13m
Length of Day
10h 15m
Waxing Crescent, 39% of the Moon is Illuminated
Feb 5
Waxing Crescent
Feb 6
First Quarter
Feb 14
Full
Feb 22
Last Quarter
Mar 1
New

Hourly Weather History & Observations

Time (CST) Temp. Windchill Dew Point Humidity Pressure Visibility Wind Dir Wind Speed Gust Speed Precip Events Conditions
12:15 AM 21.2 °F 6.0 °F 19.4 °F 93% 29.96 in 1.5 mi North 19.6 mph - N/A Snow Light Snow
12:35 AM 21.2 °F 7.3 °F 19.4 °F 93% 29.96 in 1.8 mi North 16.1 mph - N/A Snow Light Snow
12:55 AM 21.2 °F 7.3 °F 19.4 °F 93% 29.94 in 2.0 mi NNE 16.1 mph 24.2 mph N/A Snow Light Snow
1:15 AM 21.2 °F 6.8 °F 19.4 °F 93% 29.94 in 1.2 mi North 17.3 mph 23.0 mph N/A Snow Light Snow
1:35 AM 21.2 °F 7.3 °F 19.4 °F 93% 29.94 in 1.0 mi North 16.1 mph - N/A Snow Light Snow
2:15 AM 21.2 °F 7.8 °F 21.2 °F 100% 29.94 in 1.5 mi North 15.0 mph 19.6 mph N/A Snow Light Snow
2:35 AM 21.2 °F 6.8 °F 21.2 °F 100% 29.93 in 0.5 mi North 17.3 mph 21.9 mph N/A Snow Heavy Snow
2:55 AM 21.2 °F 7.3 °F 21.2 °F 100% 29.92 in 0.8 mi North 16.1 mph 21.9 mph N/A Snow Snow
3:15 AM 21.2 °F 6.8 °F 21.2 °F 100% 29.92 in - North 17.3 mph 23.0 mph N/A   Overcast
3:35 AM 21.2 °F 6.8 °F 21.2 °F 100% 29.91 in - North 17.3 mph - N/A   Overcast
3:55 AM 21.2 °F 7.8 °F 21.2 °F 100% 29.92 in - North 15.0 mph 21.9 mph N/A   Overcast
4:15 AM 21.2 °F 6.8 °F 21.2 °F 100% 29.92 in - North 17.3 mph 24.2 mph N/A   Overcast
4:35 AM 21.2 °F 6.0 °F 21.2 °F 100% 29.92 in - North 19.6 mph 25.3 mph N/A   Overcast
4:55 AM 23.0 °F 9.6 °F 21.2 °F 93% 29.93 in - North 16.1 mph 24.2 mph N/A   Overcast
5:15 AM 23.0 °F 10.1 °F 21.2 °F 93% 29.94 in - North 15.0 mph - N/A   Overcast
5:35 AM 23.0 °F 8.0 °F 21.2 °F 93% 29.94 in - North 20.7 mph 25.3 mph N/A   Overcast
5:55 AM 23.0 °F 9.2 °F 21.2 °F 93% 29.95 in - North 17.3 mph 24.2 mph N/A   Overcast
6:15 AM 23.0 °F 10.1 °F 21.2 °F 93% 29.96 in - North 15.0 mph 23.0 mph N/A   Overcast
6:35 AM 23.0 °F 10.6 °F 21.2 °F 93% 29.97 in - North 13.8 mph 23.0 mph N/A   Overcast
6:55 AM 23.0 °F 9.6 °F 21.2 °F 93% 29.98 in - North 16.1 mph 21.9 mph N/A   Overcast
7:15 AM 23.0 °F 10.1 °F 21.2 °F 93% 29.98 in - North 15.0 mph 24.2 mph N/A   Unknown
7:35 AM 23.0 °F 9.6 °F 21.2 °F 93% 30.00 in - North 16.1 mph 20.7 mph N/A   Overcast
7:55 AM 23.0 °F 9.2 °F 21.2 °F 93% 30.02 in - North 17.3 mph 20.7 mph N/A   Unknown
8:15 AM 23.0 °F 10.1 °F 21.2 °F 93% 30.03 in - North 15.0 mph 23.0 mph N/A   Unknown
8:35 AM 23.0 °F 10.1 °F 21.2 °F 93% 30.05 in - North 15.0 mph 19.6 mph N/A   Overcast
8:55 AM 23.0 °F 11.7 °F 21.2 °F 93% 30.07 in - North 11.5 mph 19.6 mph N/A   Overcast
9:15 AM 24.8 °F 12.4 °F 21.2 °F 86% 30.09 in - North 15.0 mph - N/A   Overcast
9:35 AM 26.6 °F 15.7 °F 23.0 °F 86% 30.10 in - North 12.7 mph 19.6 mph N/A   Overcast
9:55 AM 26.6 °F 14.3 °F 21.2 °F 80% 30.12 in - North 16.1 mph 20.7 mph N/A   Overcast
10:15 AM 26.6 °F 14.7 °F 23.0 °F 86% 30.12 in - North 15.0 mph 21.9 mph N/A   Unknown
10:35 AM 26.6 °F 15.7 °F 23.0 °F 86% 30.14 in - North 12.7 mph 21.9 mph N/A   Unknown
10:55 AM 26.6 °F 15.7 °F 23.0 °F 86% 30.15 in 2.5 mi North 12.7 mph 20.7 mph N/A Snow Light Snow
11:15 AM 28.4 °F 17.5 °F 23.0 °F 80% 30.15 in 3.0 mi North 13.8 mph - N/A Snow Light Snow
11:35 AM 28.4 °F 19.1 °F 23.0 °F 80% 30.16 in 4.0 mi North 10.4 mph - N/A Snow Light Snow
11:55 AM 28.4 °F 18.5 °F 23.0 °F 80% 30.17 in 5.0 mi North 11.5 mph 16.1 mph N/A Snow Light Snow
12:15 PM 28.4 °F 18.5 °F 23.0 °F 80% 30.17 in 4.0 mi North 11.5 mph - N/A Snow Light Snow
12:35 PM 28.4 °F 19.1 °F 23.0 °F 80% 30.17 in 5.0 mi North 10.4 mph 16.1 mph N/A Snow Light Snow
12:55 PM 26.6 °F 18.2 °F 24.8 °F 93% 30.18 in 1.8 mi NNW 8.1 mph 16.1 mph N/A Snow Light Snow
1:15 PM 26.6 °F 16.8 °F 24.8 °F 93% 30.18 in 1.8 mi NNW 10.4 mph 17.3 mph N/A Snow Light Snow
1:35 PM 26.6 °F 17.5 °F 23.0 °F 86% 30.20 in 2.0 mi NNW 9.2 mph - N/A Snow Light Snow
1:55 PM 26.6 °F 16.8 °F 23.0 °F 86% 30.21 in 1.8 mi NNW 10.4 mph - N/A Snow Light Snow
2:15 PM 26.6 °F 16.2 °F 23.0 °F 86% 30.23 in 3.0 mi NNW 11.5 mph 17.3 mph N/A Snow Light Snow
2:35 PM 26.6 °F 17.5 °F 23.0 °F 86% 30.24 in 5.0 mi NNW 9.2 mph - N/A Snow Light Snow
2:55 PM 26.6 °F 16.8 °F 21.2 °F 80% 30.25 in 4.0 mi NW 10.4 mph - N/A Snow Light Snow
3:15 PM 26.6 °F 17.5 °F 21.2 °F 80% 30.26 in 10.0 mi NW 9.2 mph - N/A   Overcast
3:35 PM 26.6 °F 17.5 °F 19.4 °F 74% 30.27 in 10.0 mi NNW 9.2 mph 18.4 mph N/A Snow Light Snow
3:55 PM 26.6 °F 16.8 °F 19.4 °F 74% 30.28 in 10.0 mi North 10.4 mph 16.1 mph N/A   Overcast
4:15 PM 23.0 °F 13.9 °F 17.6 °F 80% 30.29 in 10.0 mi NNW 8.1 mph 16.1 mph N/A   Scattered Clouds
4:35 PM 23.0 °F 11.1 °F 19.4 °F 86% 30.30 in 4.0 mi NNW 12.7 mph 19.6 mph N/A Snow Light Snow
4:55 PM 23.0 °F 11.7 °F 21.2 °F 93% 30.31 in 4.0 mi NNW 11.5 mph - N/A Snow Light Snow
5:15 PM 23.0 °F 13.9 °F 21.2 °F 93% 30.33 in 5.0 mi NNW 8.1 mph - N/A Snow Light Snow
5:35 PM 23.0 °F 13.9 °F 21.2 °F 93% 30.34 in 5.0 mi NNW 8.1 mph - N/A Snow Light Snow
5:55 PM 23.0 °F 13.1 °F 21.2 °F 93% 30.35 in 7.0 mi NW 9.2 mph - N/A Snow Light Snow
6:15 PM 23.0 °F 12.4 °F 19.4 °F 86% 30.35 in 10.0 mi NW 10.4 mph - N/A   Overcast
6:35 PM 23.0 °F 13.1 °F 19.4 °F 86% 30.36 in 10.0 mi NW 9.2 mph - N/A   Overcast
6:55 PM 21.2 °F 10.1 °F 19.4 °F 93% 30.37 in 10.0 mi NW 10.4 mph - N/A   Overcast
7:15 PM 21.2 °F 10.9 °F 19.4 °F 93% 30.37 in 10.0 mi NW 9.2 mph - N/A   Overcast
7:35 PM 21.2 °F 8.9 °F 17.6 °F 86% 30.38 in 10.0 mi NW 12.7 mph 17.3 mph N/A   Overcast
7:55 PM 21.2 °F 11.7 °F 17.6 °F 86% 30.39 in 10.0 mi WNW 8.1 mph - N/A   Overcast
8:15 PM 21.2 °F 11.7 °F 17.6 °F 86% 30.40 in 10.0 mi WNW 8.1 mph - N/A   Overcast
8:35 PM 21.2 °F 11.7 °F 17.6 °F 86% 30.41 in 10.0 mi WNW 8.1 mph - N/A   Overcast
8:55 PM 19.4 °F 11.5 °F 15.8 °F 86% 30.42 in 10.0 mi WNW 5.8 mph - N/A   Overcast
9:15 PM 19.4 °F 11.5 °F 14.0 °F 80% 30.42 in 10.0 mi WNW 5.8 mph - N/A   Mostly Cloudy
9:35 PM 14.0 °F 3.9 °F 12.2 °F 93% 30.42 in 10.0 mi West 6.9 mph - N/A   Scattered Clouds
9:55 PM 12.2 °F 4.3 °F 8.6 °F 85% 30.42 in 10.0 mi NW 4.6 mph - N/A   Clear
10:15 PM 12.2 °F 6.1 °F 10.4 °F 92% 30.42 in 10.0 mi WNW 3.5 mph - N/A   Mostly Cloudy
10:35 PM 14.0 °F 5.1 °F 12.2 °F 93% 30.42 in 10.0 mi WNW 5.8 mph - N/A   Overcast
10:55 PM 14.0 °F 5.1 °F 10.4 °F 86% 30.43 in 10.0 mi WNW 5.8 mph - N/A   Mostly Cloudy
11:15 PM 12.2 °F 6.1 °F 8.6 °F 85% 30.42 in 10.0 mi WNW 3.5 mph - N/A   Mostly Cloudy
11:35 PM 10.4 °F 0.8 °F 8.6 °F 92% 30.42 in 10.0 mi West 5.8 mph - N/A   Scattered Clouds
11:55 PM 8.6 °F -1.3 °F 5.0 °F 85% 30.43 in 10.0 mi West 5.8 mph - N/A   Clear